TimeCDT,TemperatureF,Dew PointF,Humidity,Sea Level PressureIn,VisibilityMPH,Wind Direction,Wind SpeedMPH,Gust SpeedMPH,PrecipitationIn,Events,Conditions,WindDirDegrees,DateUTC
12:52 AM,72.0,64.0,76,29.99,10.0,East,4.6,-,N/A,,Clear,90,2013-06-14 05:52:00
1:52 AM,68.0,62.1,81,30.00,10.0,East,3.5,-,N/A,,Clear,100,2013-06-14 06:52:00
2:52 AM,68.0,63.0,84,30.00,10.0,SE,3.5,-,N/A,,Clear,140,2013-06-14 07:52:00
3:52 AM,66.0,62.1,87,29.99,10.0,SE,5.8,-,N/A,,Clear,130,2013-06-14 08:52:00
4:52 AM,64.9,62.1,90,30.00,10.0,SSE,6.9,-,N/A,,Clear,150,2013-06-14 09:52:00
5:52 AM,64.9,61.0,87,30.01,10.0,SE,8.1,-,N/A,,Clear,130,2013-06-14 10:52:00
6:52 AM,66.9,62.1,84,30.01,10.0,SE,10.4,-,N/A,,Clear,140,2013-06-14 11:52:00
7:52 AM,70.0,63.0,78,30.01,10.0,SSE,12.7,-,N/A,,Clear,150,2013-06-14 12:52:00
8:52 AM,73.9,64.0,71,30.03,10.0,SSE,16.1,-,N/A,,Clear,160,2013-06-14 13:52:00
9:52 AM,77.0,64.0,64,30.03,10.0,SSE,16.1,-,N/A,,Clear,160,2013-06-14 14:52:00
10:52 AM,79.0,64.0,60,30.01,10.0,SSE,12.7,-,N/A,,Clear,160,2013-06-14 15:52:00
11:52 AM,82.0,66.0,58,30.00,10.0,SE,13.8,-,N/A,,Clear,140,2013-06-14 16:52:00
12:52 PM,82.9,66.0,56,30.01,10.0,Variable,5.8,16.1,N/A,,Clear,0,2013-06-14 17:52:00
1:52 PM,84.0,69.1,61,29.99,10.0,South,10.4,-,N/A,,Clear,170,2013-06-14 18:52:00
2:52 PM,86.0,70.0,59,29.97,10.0,SE,9.2,-,N/A,,Clear,140,2013-06-14 19:52:00
3:52 PM,87.1,69.1,55,29.96,10.0,Variable,6.9,-,N/A,,Clear,0,2013-06-14 20:52:00
4:52 PM,87.1,69.1,55,29.95,10.0,ESE,4.6,-,N/A,,Partly Cloudy,120,2013-06-14 21:52:00
5:52 PM,87.1,69.1,55,29.93,10.0,ESE,11.5,-,N/A,,Clear,120,2013-06-14 22:52:00
6:52 PM,84.9,69.1,59,29.92,10.0,SE,13.8,-,N/A,,Clear,140,2013-06-14 23:52:00
7:52 PM,82.0,66.9,60,29.94,10.0,SE,11.5,-,N/A,,Clear,140,2013-06-15 00:52:00
8:52 PM,80.1,66.9,64,29.94,10.0,SE,15.0,-,N/A,,Clear,130,2013-06-15 01:52:00
9:52 PM,78.1,64.9,64,29.96,10.0,SE,13.8,-,N/A,,Clear,140,2013-06-15 02:52:00
10:52 PM,77.0,64.9,66,29.98,10.0,SSE,13.8,-,N/A,,Clear,150,2013-06-15 03:52:00
11:52 PM,75.9,64.9,69,29.98,10.0,SSE,12.7,-,N/A,,Clear,150,2013-06-15 04:52:00